RYR8UB EPMO-LGKR

Flight info

Callsign RYR8UB
Flight time 1h 58m
Altitude 38000
Route EVINA DCT KUKAM DCT MEBAN/N0441F390 DCT DODAR DCT EBORO DCT PARAK/N0440F380 DCT POD DCT RODON/N0441F390 DCT LIMJA N732 PITAS
Aircraft B38M/M-SADE3FGILRWY/SB1

Departure

Time 2026-04-26 09:01
Airport Warsaw Modlin Airport (EPMO)

Arrival

Time 2026-04-26 10:59
Airport Corfu Ioannis Kapodistrias International Airport (LGKR)
Time Latitude Longitude Altitude Speed Heading
2026-04-26 08:33 52.44722 20.65019 340 ft 0 kts 206°
2026-04-26 08:51 52.44738 20.65029 337 ft 4 kts 192°
2026-04-26 08:51 52.44761 20.65027 335 ft 4 kts 142°
2026-04-26 08:52 52.44767 20.65004 338 ft 1 kts 81°
2026-04-26 08:52 52.44767 20.64997 337 ft 0 kts 81°
2026-04-26 08:56 52.44767 20.65003 340 ft 2 kts 81°
2026-04-26 08:57 52.44772 20.65056 340 ft 8 kts 81°
2026-04-26 08:57 52.44786 20.65202 340 ft 17 kts 81°
2026-04-26 08:57 52.44804 20.65391 340 ft 17 kts 83°
2026-04-26 08:57 52.44823 20.65599 338 ft 19 kts 82°
2026-04-26 08:58 52.44841 20.65817 337 ft 20 kts 81°
2026-04-26 08:58 52.44864 20.66052 340 ft 22 kts 81°
2026-04-26 08:58 52.44886 20.66291 338 ft 21 kts 81°
2026-04-26 08:58 52.44910 20.66543 337 ft 23 kts 81°
2026-04-26 08:59 52.44928 20.66740 340 ft 17 kts 81°
2026-04-26 08:59 52.44946 20.66935 341 ft 15 kts 81°
2026-04-26 08:59 52.44984 20.67075 341 ft 14 kts 21°
2026-04-26 08:59 52.45066 20.67065 337 ft 11 kts 351°
2026-04-26 09:00 52.45149 20.67044 338 ft 13 kts 352°
2026-04-26 09:00 52.45241 20.67003 340 ft 14 kts 341°
2026-04-26 09:00 52.45285 20.66927 338 ft 9 kts 266°
2026-04-26 09:00 52.45272 20.66780 338 ft 20 kts 261°
2026-04-26 09:01 52.45215 20.66174 340 ft 93 kts 261°
2026-04-26 09:01 52.45073 20.64754 452 ft 147 kts 265°
2026-04-26 09:01 52.44802 20.63077 1153 ft 160 kts 259°
2026-04-26 09:01 52.44533 20.61249 2023 ft 168 kts 270°
2026-04-26 09:02 52.44399 20.59316 2752 ft 178 kts 271°
2026-04-26 09:02 52.44256 20.57181 3441 ft 188 kts 270°
2026-04-26 09:02 52.43806 20.54991 3970 ft 227 kts 241°
2026-04-26 09:02 52.42467 20.53315 4513 ft 263 kts 205°
2026-04-26 09:03 52.40577 20.52852 5199 ft 285 kts 187°
2026-04-26 09:03 52.38598 20.52574 6165 ft 285 kts 189°
2026-04-26 09:03 52.36603 20.52259 7063 ft 290 kts 189°
2026-04-26 09:03 52.34603 20.51929 7948 ft 293 kts 190°
2026-04-26 09:04 52.32555 20.51586 8827 ft 297 kts 190°
2026-04-26 09:04 52.30480 20.51236 9691 ft 302 kts 190°
2026-04-26 09:04 52.28365 20.50877 10444 ft 310 kts 191°
2026-04-26 09:04 52.26158 20.50492 10856 ft 329 kts 191°
2026-04-26 09:05 52.23826 20.50080 11339 ft 343 kts 191°
2026-04-26 09:05 52.21411 20.49659 11960 ft 353 kts 191°
2026-04-26 09:05 52.18945 20.49242 12657 ft 360 kts 191°
2026-04-26 09:05 52.16411 20.48812 13299 ft 369 kts 191°
2026-04-26 09:06 52.14715 20.48528 13786 ft 373 kts 192°
2026-04-26 09:06 52.11228 20.47940 14572 ft 383 kts 192°
2026-04-26 09:06 52.09453 20.47643 14989 ft 388 kts 192°
2026-04-26 09:06 52.05843 20.47038 15819 ft 397 kts 193°
2026-04-26 09:07 52.03078 20.46575 16429 ft 403 kts 193°
2026-04-26 09:07 52.01182 20.46259 16848 ft 407 kts 193°
2026-04-26 09:07 51.98329 20.45784 17458 ft 414 kts 193°
2026-04-26 09:07 51.95475 20.45307 18114 ft 420 kts 194°
2026-04-26 09:08 51.92537 20.44818 18638 ft 425 kts 194°
2026-04-26 09:08 51.89576 20.44326 19177 ft 429 kts 194°
2026-04-26 09:08 51.86633 20.43839 19720 ft 432 kts 194°
2026-04-26 09:08 51.83623 20.43340 20276 ft 435 kts 194°
2026-04-26 09:09 51.80586 20.42837 20807 ft 439 kts 195°
2026-04-26 09:09 51.77523 20.42332 21322 ft 442 kts 195°
2026-04-26 09:09 51.74486 20.41831 21845 ft 446 kts 195°
2026-04-26 09:09 51.71381 20.41320 22361 ft 449 kts 195°
2026-04-26 09:10 51.68248 20.40804 22879 ft 453 kts 195°
2026-04-26 09:10 51.65097 20.40287 23409 ft 456 kts 195°
2026-04-26 09:10 51.61924 20.39767 23870 ft 459 kts 195°
2026-04-26 09:10 51.58777 20.39253 24295 ft 462 kts 195°
2026-04-26 09:11 51.55526 20.38722 24758 ft 465 kts 195°
2026-04-26 09:11 51.52339 20.38202 25188 ft 467 kts 195°
2026-04-26 09:11 51.49094 20.37674 25625 ft 470 kts 195°
2026-04-26 09:11 51.45830 20.37143 25995 ft 473 kts 195°
2026-04-26 09:12 51.42542 20.36609 26468 ft 473 kts 195°
2026-04-26 09:12 51.39261 20.36016 26883 ft 470 kts 201°
2026-04-26 09:12 51.36169 20.34611 27278 ft 459 kts 210°
2026-04-26 09:12 51.33105 20.33022 27622 ft 464 kts 209°
2026-04-26 09:13 51.30063 20.31456 28043 ft 466 kts 210°
2026-04-26 09:13 51.26958 20.29849 28441 ft 468 kts 210°
2026-04-26 09:13 51.23851 20.28239 28830 ft 471 kts 210°
2026-04-26 09:13 51.20721 20.26619 29180 ft 472 kts 209°
2026-04-26 09:14 51.17618 20.25015 29605 ft 474 kts 209°
2026-04-26 09:14 51.14468 20.23388 29956 ft 476 kts 209°
2026-04-26 09:14 51.11308 20.21759 30301 ft 479 kts 209°
2026-04-26 09:14 51.08119 20.20118 30609 ft 481 kts 209°
2026-04-26 09:15 51.04957 20.18493 30921 ft 482 kts 209°
2026-04-26 09:15 51.01744 20.16844 31227 ft 484 kts 208°
2026-04-26 09:15 50.98524 20.15193 31502 ft 485 kts 208°
2026-04-26 09:15 50.95308 20.13548 31893 ft 485 kts 208°
2026-04-26 09:16 50.92082 20.11898 32151 ft 488 kts 208°
2026-04-26 09:16 50.88841 20.10245 32446 ft 489 kts 208°
2026-04-26 09:16 50.85633 20.08610 32735 ft 491 kts 208°
2026-04-26 09:16 50.82374 20.06951 33004 ft 493 kts 207°
2026-04-26 09:17 50.79011 20.05577 33292 ft 504 kts 200°
2026-04-26 09:17 50.75568 20.04478 33566 ft 504 kts 200°
2026-04-26 09:17 50.72126 20.03387 33912 ft 505 kts 200°
2026-04-26 09:17 50.68675 20.02302 34182 ft 506 kts 200°
2026-04-26 09:18 50.65209 20.01216 34450 ft 507 kts 200°
2026-04-26 09:18 50.61791 20.00147 34817 ft 505 kts 199°
2026-04-26 09:18 50.58345 19.99070 35204 ft 502 kts 199°
2026-04-26 09:18 50.54923 19.98002 35556 ft 499 kts 199°
2026-04-26 09:19 50.51527 19.96944 35964 ft 496 kts 199°
2026-04-26 09:19 50.48185 19.95904 36371 ft 493 kts 199°
2026-04-26 09:19 50.44825 19.94860 36749 ft 490 kts 199°
2026-04-26 09:19 50.41482 19.93823 37107 ft 488 kts 199°
2026-04-26 09:20 50.38149 19.92791 37453 ft 485 kts 199°
2026-04-26 09:20 50.34848 19.91769 37798 ft 483 kts 199°
2026-04-26 09:20 50.31549 19.90750 38062 ft 481 kts 199°
2026-04-26 09:20 50.28290 19.89745 38173 ft 481 kts 199°
2026-04-26 09:21 50.25008 19.88733 38140 ft 478 kts 199°
2026-04-26 09:21 50.18526 19.86741 38158 ft 477 kts 199°
2026-04-26 09:22 50.11986 19.84736 38153 ft 477 kts 199°
2026-04-26 09:22 50.05510 19.82757 38135 ft 476 kts 198°
2026-04-26 09:23 49.99004 19.80773 38155 ft 475 kts 198°
2026-04-26 09:23 49.92515 19.78800 38153 ft 475 kts 198°
2026-04-26 09:24 49.86055 19.76841 38066 ft 475 kts 198°
2026-04-26 09:24 49.79580 19.74884 38118 ft 471 kts 198°
2026-04-26 09:25 49.73187 19.72957 38118 ft 470 kts 198°
2026-04-26 09:25 49.66749 19.71020 38120 ft 470 kts 198°
2026-04-26 09:26 49.60331 19.69095 38128 ft 468 kts 198°
2026-04-26 09:26 49.53941 19.67183 38107 ft 466 kts 198°
2026-04-26 09:27 49.47600 19.65290 38124 ft 467 kts 198°
2026-04-26 09:27 49.41051 19.64440 38124 ft 475 kts 188°
2026-04-26 09:28 49.34483 19.64057 38110 ft 475 kts 188°
2026-04-26 09:28 49.27864 19.63690 38100 ft 475 kts 188°
2026-04-26 09:29 49.21239 19.63325 38113 ft 475 kts 188°
2026-04-26 09:29 49.14676 19.62964 38097 ft 471 kts 188°
2026-04-26 09:30 49.08136 19.62606 38082 ft 469 kts 188°
2026-04-26 09:30 49.01627 19.62249 38099 ft 470 kts 188°
2026-04-26 09:31 48.95093 19.61893 38053 ft 469 kts 188°
2026-04-26 09:31 48.88592 19.61539 38116 ft 465 kts 188°
2026-04-26 09:32 48.82109 19.61187 38079 ft 467 kts 188°
2026-04-26 09:32 48.75617 19.60836 38081 ft 470 kts 188°
2026-04-26 09:33 48.69090 19.60484 38080 ft 466 kts 188°
2026-04-26 09:33 48.62619 19.60136 38072 ft 465 kts 188°
2026-04-26 09:34 48.56144 19.59788 38066 ft 465 kts 188°
2026-04-26 09:34 48.49673 19.59440 38028 ft 465 kts 188°
2026-04-26 09:35 48.43213 19.59096 38071 ft 467 kts 188°
2026-04-26 09:35 48.36721 19.58750 38080 ft 466 kts 188°
2026-04-26 09:36 48.30223 19.58404 38074 ft 467 kts 188°
2026-04-26 09:36 48.23725 19.58060 38063 ft 466 kts 188°
2026-04-26 09:37 48.17293 19.57720 38073 ft 465 kts 188°
2026-04-26 09:37 48.10795 19.57377 38070 ft 466 kts 188°
2026-04-26 09:38 48.04338 19.57038 38052 ft 466 kts 188°
2026-04-26 09:38 47.97835 19.56696 38070 ft 467 kts 188°
2026-04-26 09:39 47.91378 19.56358 38072 ft 466 kts 188°
2026-04-26 09:39 47.84884 19.56019 38073 ft 466 kts 188°
2026-04-26 09:40 47.78367 19.55679 38075 ft 471 kts 187°
2026-04-26 09:40 47.71818 19.55339 38074 ft 473 kts 187°
2026-04-26 09:41 47.65228 19.54998 38086 ft 472 kts 187°
2026-04-26 09:41 47.58684 19.54660 38080 ft 474 kts 187°
2026-04-26 09:42 47.52062 19.54318 38092 ft 476 kts 186°
2026-04-26 09:42 47.45431 19.53976 38097 ft 476 kts 187°
2026-04-26 09:43 47.38824 19.53637 38050 ft 476 kts 186°
2026-04-26 09:43 47.32249 19.53301 38090 ft 467 kts 186°
2026-04-26 09:44 47.25790 19.52971 38094 ft 467 kts 186°
2026-04-26 09:44 47.19328 19.54068 38085 ft 474 kts 162°
2026-04-26 09:45 47.13110 19.57330 38050 ft 478 kts 163°
2026-04-26 09:45 47.06849 19.60684 38080 ft 479 kts 162°
2026-04-26 09:46 47.00597 19.64064 38095 ft 478 kts 163°
2026-04-26 09:46 46.94355 19.67433 38082 ft 478 kts 163°
2026-04-26 09:47 46.88167 19.70765 38071 ft 472 kts 163°
2026-04-26 09:47 46.82000 19.74077 38077 ft 472 kts 163°
2026-04-26 09:48 46.75822 19.77387 38075 ft 472 kts 163°
2026-04-26 09:48 46.69654 19.80684 38058 ft 472 kts 162°
2026-04-26 09:49 46.63509 19.83960 38080 ft 474 kts 162°
2026-04-26 09:49 46.57299 19.87263 38072 ft 474 kts 162°
2026-04-26 09:50 46.51120 19.90541 38065 ft 474 kts 162°
2026-04-26 09:50 46.44911 19.93828 38059 ft 474 kts 162°
2026-04-26 09:51 46.38696 19.97111 38061 ft 475 kts 162°
2026-04-26 09:51 46.32533 20.00483 38070 ft 475 kts 161°
2026-04-26 09:52 46.26348 20.03911 38078 ft 475 kts 161°
2026-04-26 09:52 46.18108 20.08265 38038 ft 466 kts 171°
2026-04-26 09:53 46.14922 20.08655 38049 ft 455 kts 187°
2026-04-26 09:53 46.11815 20.08120 38074 ft 455 kts 191°
2026-04-26 09:53 46.05519 20.06801 38081 ft 456 kts 192°
2026-04-26 09:54 45.99245 20.05357 38075 ft 455 kts 192°
2026-04-26 09:54 45.93045 20.03899 38083 ft 453 kts 192°
2026-04-26 09:55 45.86800 20.02431 38084 ft 453 kts 192°
2026-04-26 09:55 45.80604 20.00978 38073 ft 453 kts 192°
2026-04-26 09:56 45.74367 19.99518 38094 ft 452 kts 192°
2026-04-26 09:56 45.68193 19.98076 38090 ft 452 kts 192°
2026-04-26 09:57 45.61972 19.96627 38088 ft 453 kts 192°
2026-04-26 09:57 45.55741 19.95179 38093 ft 453 kts 192°
2026-04-26 09:58 45.49515 19.93735 38089 ft 453 kts 192°
2026-04-26 09:58 45.43318 19.92301 38095 ft 453 kts 192°
2026-04-26 09:59 45.37084 19.90861 38088 ft 453 kts 193°
2026-04-26 09:59 45.30851 19.89426 38096 ft 454 kts 193°
2026-04-26 10:00 45.24613 19.87992 38089 ft 454 kts 193°
2026-04-26 10:00 45.18395 19.86566 38091 ft 453 kts 192°
2026-04-26 10:01 45.12196 19.85147 38082 ft 453 kts 192°
2026-04-26 10:01 45.05966 19.83724 38102 ft 453 kts 192°
2026-04-26 10:02 44.99728 19.82303 38104 ft 453 kts 192°
2026-04-26 10:02 44.93524 19.80893 38099 ft 453 kts 192°
2026-04-26 10:03 44.87290 19.79478 38096 ft 453 kts 192°
2026-04-26 10:03 44.81097 19.78077 38090 ft 453 kts 192°
2026-04-26 10:04 44.74849 19.76666 38106 ft 453 kts 192°
2026-04-26 10:04 44.68660 19.75271 38107 ft 453 kts 192°
2026-04-26 10:05 44.62417 19.73867 38086 ft 453 kts 192°
2026-04-26 10:05 44.56195 19.72471 38112 ft 452 kts 192°
2026-04-26 10:06 44.50018 19.71088 38119 ft 452 kts 192°
2026-04-26 10:06 44.43804 19.69700 38104 ft 452 kts 192°
2026-04-26 10:07 44.37626 19.68322 38111 ft 451 kts 192°
2026-04-26 10:07 44.31415 19.66941 38114 ft 451 kts 192°
2026-04-26 10:08 44.25200 19.65561 38121 ft 451 kts 192°
2026-04-26 10:08 44.19027 19.64193 38115 ft 451 kts 192°
2026-04-26 10:09 44.12825 19.62822 38114 ft 451 kts 192°
2026-04-26 10:09 44.06648 19.61460 38106 ft 451 kts 192°
2026-04-26 10:10 44.00480 19.60102 38127 ft 452 kts 192°
2026-04-26 10:10 43.94260 19.58737 38115 ft 451 kts 192°
2026-04-26 10:11 43.88057 19.57377 38106 ft 451 kts 192°
2026-04-26 10:11 43.81888 19.56028 38109 ft 450 kts 192°
2026-04-26 10:12 43.75706 19.54679 38119 ft 449 kts 192°
2026-04-26 10:12 43.69516 19.53330 38099 ft 449 kts 192°
2026-04-26 10:13 43.63337 19.51987 38103 ft 448 kts 192°
2026-04-26 10:13 43.57202 19.50657 38097 ft 448 kts 192°
2026-04-26 10:14 43.51009 19.49316 38105 ft 449 kts 192°
2026-04-26 10:14 43.44881 19.47992 38098 ft 447 kts 192°
2026-04-26 10:15 43.38726 19.46666 38102 ft 447 kts 192°
2026-04-26 10:15 43.32606 19.45349 38105 ft 447 kts 192°
2026-04-26 10:16 43.26442 19.44026 38102 ft 447 kts 193°
2026-04-26 10:16 43.20279 19.42705 38101 ft 448 kts 193°
2026-04-26 10:17 43.14150 19.41395 38094 ft 447 kts 193°
2026-04-26 10:17 43.07988 19.40080 38103 ft 448 kts 193°
2026-04-26 10:18 43.01830 19.38769 38067 ft 448 kts 193°
2026-04-26 10:18 42.95664 19.37458 38101 ft 448 kts 193°
2026-04-26 10:19 42.89555 19.36163 38095 ft 447 kts 193°
2026-04-26 10:19 42.83392 19.34859 38085 ft 446 kts 193°
2026-04-26 10:20 42.78282 19.33778 38067 ft 446 kts 193°
2026-04-26 10:20 42.71144 19.32274 38045 ft 444 kts 193°
2026-04-26 10:21 42.65011 19.30981 38091 ft 445 kts 193°
2026-04-26 10:21 42.58907 19.29701 38058 ft 446 kts 193°
2026-04-26 10:22 42.52764 19.28413 38073 ft 445 kts 193°
2026-04-26 10:22 42.46644 19.27133 38075 ft 445 kts 193°
2026-04-26 10:23 42.40552 19.25861 38078 ft 445 kts 193°
2026-04-26 10:23 42.34384 19.24800 38070 ft 445 kts 191°
2026-04-26 10:24 42.28231 19.23764 38077 ft 445 kts 191°
2026-04-26 10:24 42.22109 19.22729 38074 ft 445 kts 191°
2026-04-26 10:25 42.15957 19.21691 38071 ft 445 kts 191°
2026-04-26 10:25 42.09806 19.20655 38085 ft 445 kts 191°
2026-04-26 10:26 42.03651 19.19620 38080 ft 445 kts 191°
2026-04-26 10:26 41.97497 19.18588 38092 ft 445 kts 191°
2026-04-26 10:27 41.91382 19.17563 38089 ft 445 kts 191°
2026-04-26 10:27 41.85264 19.16541 38091 ft 444 kts 191°
2026-04-26 10:28 41.79108 19.15514 38078 ft 444 kts 191°
2026-04-26 10:28 41.72953 19.14489 38091 ft 444 kts 191°
2026-04-26 10:29 41.66847 19.13475 38094 ft 444 kts 191°
2026-04-26 10:29 41.60697 19.12454 38087 ft 444 kts 190°
2026-04-26 10:30 41.54590 19.11444 38097 ft 443 kts 190°
2026-04-26 10:30 41.51528 19.10937 37980 ft 440 kts 190°
2026-04-26 10:30 41.48509 19.10452 37613 ft 434 kts 188°
2026-04-26 10:31 41.45473 19.10601 36891 ft 441 kts 171°
2026-04-26 10:31 41.42513 19.11792 36293 ft 443 kts 163°
2026-04-26 10:31 41.39651 19.13114 35814 ft 439 kts 163°
2026-04-26 10:31 41.36776 19.14469 35293 ft 437 kts 163°
2026-04-26 10:32 41.33926 19.15837 34814 ft 434 kts 163°
2026-04-26 10:32 41.31092 19.17211 34334 ft 432 kts 163°
2026-04-26 10:32 41.28276 19.18582 33810 ft 430 kts 163°
2026-04-26 10:32 41.25474 19.19946 33261 ft 428 kts 163°
2026-04-26 10:33 41.22684 19.21304 32776 ft 424 kts 163°
2026-04-26 10:33 41.19916 19.22650 32322 ft 421 kts 163°
2026-04-26 10:33 41.17203 19.23967 31862 ft 418 kts 163°
2026-04-26 10:33 41.14469 19.25295 31391 ft 415 kts 163°
2026-04-26 10:34 41.11751 19.26612 30937 ft 413 kts 163°
2026-04-26 10:34 41.09091 19.27901 30498 ft 411 kts 163°
2026-04-26 10:34 41.06402 19.29203 30021 ft 409 kts 163°
2026-04-26 10:34 41.03732 19.30494 29507 ft 407 kts 163°
2026-04-26 10:35 41.01086 19.31773 29076 ft 403 kts 163°
2026-04-26 10:35 40.98454 19.33044 28641 ft 400 kts 163°
2026-04-26 10:35 40.95885 19.34283 28214 ft 396 kts 162°
2026-04-26 10:35 40.93296 19.35531 27794 ft 393 kts 162°
2026-04-26 10:36 40.90735 19.36764 27383 ft 390 kts 162°
2026-04-26 10:36 40.88188 19.37990 26973 ft 387 kts 162°
2026-04-26 10:36 40.85663 19.39204 26570 ft 385 kts 162°
2026-04-26 10:36 40.83152 19.40410 26162 ft 383 kts 162°
2026-04-26 10:37 40.80649 19.41612 25765 ft 381 kts 162°
2026-04-26 10:37 40.78154 19.42809 25377 ft 379 kts 162°
2026-04-26 10:37 40.75714 19.43978 24988 ft 378 kts 162°
2026-04-26 10:37 40.73238 19.45164 24590 ft 376 kts 162°
2026-04-26 10:38 40.70773 19.46344 24202 ft 375 kts 162°
2026-04-26 10:38 40.68324 19.47515 23819 ft 374 kts 162°
2026-04-26 10:38 40.65903 19.48671 23393 ft 373 kts 162°
2026-04-26 10:38 40.63461 19.49837 22974 ft 372 kts 162°
2026-04-26 10:39 40.61040 19.50992 22590 ft 369 kts 162°
2026-04-26 10:39 40.59438 19.51757 22327 ft 367 kts 162°
2026-04-26 10:39 40.57031 19.52861 21961 ft 363 kts 167°
2026-04-26 10:39 40.54558 19.53375 21576 ft 358 kts 175°
2026-04-26 10:40 40.51303 19.53931 21168 ft 353 kts 174°
2026-04-26 10:40 40.48881 19.54356 20833 ft 350 kts 174°
2026-04-26 10:40 40.47251 19.54642 20610 ft 348 kts 174°
2026-04-26 10:40 40.44888 19.55059 20281 ft 346 kts 174°
2026-04-26 10:41 40.42505 19.55479 19940 ft 343 kts 174°
2026-04-26 10:41 40.40140 19.55896 19604 ft 341 kts 174°
2026-04-26 10:41 40.37790 19.56311 19291 ft 339 kts 174°
2026-04-26 10:41 40.35461 19.56720 18961 ft 337 kts 174°
2026-04-26 10:42 40.33142 19.57128 18644 ft 335 kts 174°
2026-04-26 10:42 40.30833 19.57534 18315 ft 333 kts 174°
2026-04-26 10:42 40.28571 19.57932 17955 ft 332 kts 174°
2026-04-26 10:42 40.26279 19.58334 17621 ft 330 kts 174°
2026-04-26 10:43 40.24005 19.58733 17304 ft 328 kts 174°
2026-04-26 10:43 40.21751 19.59129 16983 ft 326 kts 174°
2026-04-26 10:43 40.19502 19.59523 16658 ft 323 kts 174°
2026-04-26 10:43 40.17294 19.59909 16342 ft 324 kts 174°
2026-04-26 10:44 40.15063 19.60299 16033 ft 324 kts 173°
2026-04-26 10:44 40.12830 19.60690 15728 ft 322 kts 173°
2026-04-26 10:44 40.10618 19.61077 15425 ft 319 kts 173°
2026-04-26 10:44 40.08423 19.61460 15120 ft 316 kts 173°
2026-04-26 10:45 40.06242 19.61840 14816 ft 314 kts 173°
2026-04-26 10:45 40.04098 19.62214 14525 ft 313 kts 173°
2026-04-26 10:45 40.01941 19.62590 14219 ft 311 kts 173°
2026-04-26 10:45 39.99795 19.62964 13917 ft 310 kts 173°
2026-04-26 10:46 39.97662 19.63335 13590 ft 308 kts 173°
2026-04-26 10:46 39.95553 19.63702 13275 ft 308 kts 173°
2026-04-26 10:46 39.93425 19.64072 12975 ft 309 kts 173°
2026-04-26 10:46 39.91287 19.64443 12665 ft 309 kts 173°
2026-04-26 10:47 39.89159 19.64813 12379 ft 308 kts 173°
2026-04-26 10:47 39.87026 19.65183 12084 ft 308 kts 173°
2026-04-26 10:47 39.84900 19.65552 11778 ft 308 kts 173°
2026-04-26 10:47 39.82802 19.65916 11487 ft 307 kts 173°
2026-04-26 10:48 39.80686 19.66282 11190 ft 304 kts 173°
2026-04-26 10:48 39.78592 19.66644 10883 ft 302 kts 173°
2026-04-26 10:48 39.76515 19.67004 10583 ft 300 kts 173°
2026-04-26 10:48 39.74455 19.67360 10310 ft 298 kts 173°
2026-04-26 10:49 39.72401 19.67715 10038 ft 296 kts 173°
2026-04-26 10:49 39.70384 19.68064 9710 ft 295 kts 173°
2026-04-26 10:49 39.68352 19.68415 9420 ft 293 kts 173°
2026-04-26 10:49 39.66324 19.68764 9110 ft 293 kts 173°
2026-04-26 10:50 39.64266 19.69119 8816 ft 305 kts 173°
2026-04-26 10:50 39.62857 19.69362 8623 ft 311 kts 173°
2026-04-26 10:50 39.59955 19.69861 8219 ft 316 kts 173°
2026-04-26 10:50 39.57778 19.70236 7921 ft 315 kts 173°
2026-04-26 10:51 39.55621 19.70607 7613 ft 314 kts 173°
2026-04-26 10:51 39.51295 19.71350 7003 ft 311 kts 173°
2026-04-26 10:51 39.49162 19.71716 6701 ft 307 kts 173°
2026-04-26 10:52 39.47055 19.72078 6404 ft 305 kts 172°
2026-04-26 10:52 39.44961 19.72436 6073 ft 297 kts 172°
2026-04-26 10:52 39.42965 19.72821 5793 ft 283 kts 165°
2026-04-26 10:52 39.41271 19.73972 5465 ft 272 kts 136°
2026-04-26 10:53 39.40252 19.75923 5226 ft 267 kts 109°
2026-04-26 10:53 39.39927 19.78272 5004 ft 265 kts 89°
2026-04-26 10:53 39.39904 19.80658 4757 ft 266 kts 90°
2026-04-26 10:54 39.39914 19.85432 4184 ft 263 kts 89°
2026-04-26 10:54 39.40001 19.87776 3917 ft 259 kts 77°
2026-04-26 10:54 39.40476 19.90009 3650 ft 256 kts 72°
2026-04-26 10:54 39.40982 19.92207 3403 ft 253 kts 72°
2026-04-26 10:55 39.41472 19.94351 3155 ft 250 kts 71°
2026-04-26 10:55 39.42203 19.96339 2870 ft 243 kts 45°
2026-04-26 10:55 39.43652 19.97305 2663 ft 235 kts
2026-04-26 10:55 39.45230 19.96914 2425 ft 231 kts 340°
2026-04-26 10:56 39.46731 19.96259 2295 ft 223 kts 342°
2026-04-26 10:56 39.48194 19.95669 2025 ft 216 kts 342°
2026-04-26 10:56 39.49603 19.95116 1811 ft 206 kts 343°
2026-04-26 10:56 39.50930 19.94602 1747 ft 191 kts 343°
2026-04-26 10:57 39.52126 19.94144 1559 ft 167 kts 343°
2026-04-26 10:57 39.53169 19.93740 1312 ft 149 kts 341°
2026-04-26 10:57 39.54125 19.93376 1104 ft 140 kts 342°
2026-04-26 10:57 39.55062 19.93027 889 ft 140 kts 342°
2026-04-26 10:58 39.56001 19.92622 678 ft 145 kts 338°
2026-04-26 10:58 39.56966 19.92108 517 ft 152 kts 341°
2026-04-26 10:58 39.57991 19.91746 336 ft 153 kts 353°
2026-04-26 10:58 39.59029 19.91510 102 ft 148 kts 352°
2026-04-26 10:59 39.59977 19.91269 16 ft 122 kts 349°
2026-04-26 10:59 39.60581 19.91112 12 ft 61 kts 349°
2026-04-26 10:59 39.60861 19.91040 14 ft 28 kts 348°
2026-04-26 10:59 39.60998 19.91011 13 ft 12 kts
2026-04-26 11:00 39.61049 19.91075 16 ft 7 kts 54°
2026-04-26 11:00 39.61058 19.91105 19 ft 1 kts 91°
2026-04-26 11:00 39.61052 19.91118 18 ft 4 kts 137°
2026-04-26 11:00 39.60992 19.91140 20 ft 12 kts 168°
2026-04-26 11:01 39.60906 19.91163 20 ft 13 kts 168°
2026-04-26 11:01 39.60821 19.91186 18 ft 12 kts 169°
2026-04-26 11:01 39.60732 19.91209 20 ft 14 kts 169°
2026-04-26 11:01 39.60660 19.91228 19 ft 7 kts 155°
2026-04-26 11:02 39.60654 19.91266 20 ft 4 kts 81°
2026-04-26 11:02 39.60660 19.91311 20 ft 6 kts 79°
2026-04-26 11:02 39.60664 19.91340 20 ft 1 kts 79°
2026-04-26 11:02 39.60666 19.91351 20 ft 0 kts 78°